K5BWX-3 Weather Reports


time (UTC)temp
C
wind
direction
speed
KPH
gust
KPH
rain 1hr
cm
rain 24hr
cm
rain mn
cm
humidity
%
barometer
mb
20260504041913 9 259 1.6 4.8 0.00 0.03 0.03 78 991.9
20260504041905 9 259 1.6 4.8 0.00 0.03 0.03 78 991.9
20260504041647 9 259 1.6 4.8 0.00 0.03 0.03 78 992.0
20260504041542 9 259 1.6 4.8 0.00 0.03 0.03 78 992.0
20260504041444 9 259 3.2 4.8 0.00 0.03 0.03 78 991.9
20260504041343 9 259 3.2 4.8 0.00 0.03 0.03 78 991.9
20260504041243 9 259 1.6 4.8 0.00 0.03 0.03 78 992.0
20260504041142 9 259 1.6 4.8 0.00 0.03 0.03 78 992.0
20260504041108 9 259 1.6 4.8 0.00 0.03 0.03 77 992.1
20260504041059 9 259 1.6 4.8 0.00 0.03 0.03 78 992.0
20260504040837 9 259 1.6 4.8 0.00 0.03 0.03 77 992.1
20260504040735 9 259 1.6 4.8 0.00 0.03 0.03 77 992.1
20260504040634 9 259 1.6 4.8 0.00 0.03 0.03 77 992.2
20260504040535 9 259 0.0 4.8 0.00 0.03 0.03 77 992.1
20260504040433 9 259 0.0 4.8 0.00 0.03 0.03 77 992.1
20260504040331 9 259 0.0 1.6 0.00 0.03 0.03 77 992.1
20260504040222 9 259 0.0 3.2 0.00 0.03 0.03 77 992.1
20260504040121 9 259 0.0 3.2 0.00 0.03 0.03 77 992.1
20260504040050 9 259 0.0 3.2 0.00 0.03 0.03 77 992.1
20260504040040 9 259 0.0 3.2 0.00 0.03 0.03 77 992.1
20260504035821 9 259 0.0 3.2 0.00 0.03 0.03 77 992.1
20260504035722 9 259 0.0 3.2 0.00 0.03 0.03 77 992.1
20260504035618 9 259 0.0 3.2 0.00 0.03 0.03 76 992.1
20260504035519 9 259 0.0 3.2 0.00 0.03 0.03 76 992.1
20260504035507 9 259 0.0 3.2 0.00 0.03 0.03 76 992.2
20260504035503 9 259 0.0 3.2 0.00 0.03 0.03 76 992.2
20260504035447 9 259 0.0 3.2 0.00 0.03 0.03 76 992.3
20260504035112 9 259 0.0 3.2 0.00 0.03 0.03 76 992.1
20260504035011 9 259 0.0 3.2 0.00 0.03 0.03 76 992.1
20260504034912 9 259 0.0 3.2 0.00 0.03 0.03 76 992.1
20260504034810 9 259 0.0 3.2 0.00 0.03 0.03 76 992.1
20260504034704 10 259 0.0 3.2 0.00 0.03 0.03 76 992.2
20260504034605 10 259 0.0 3.2 0.00 0.03 0.03 76 992.2
20260504034505 10 259 0.0 3.2 0.00 0.03 0.03 76 992.2
20260504034401 10 259 0.0 3.2 0.00 0.03 0.03 76 992.2
20260504034259 10 259 0.0 3.2 0.00 0.03 0.03 76 992.1
20260504034200 10 259 0.0 3.2 0.00 0.03 0.03 76 992.2
20260504034058 10 259 0.0 3.2 0.00 0.03 0.03 76 992.3
20260504033956 10 259 0.0 3.2 0.00 0.03 0.03 76 992.2
20260504033855 10 259 0.0 3.2 0.00 0.03 0.03 76 992.2
20260504033821 10 259 1.6 3.2 0.00 0.03 0.03 75 992.2
20260504033812 10 259 0.0 3.2 0.00 0.03 0.03 75 992.1
20260504033553 10 259 1.6 3.2 0.00 0.03 0.03 75 992.3
20260504033452 10 259 1.6 3.2 0.00 0.03 0.03 75 992.3
20260504033353 10 259 1.6 3.2 0.00 0.03 0.03 76 992.2
20260504033320 10 259 1.6 4.8 0.00 0.03 0.03 76 992.3
20260504033310 10 259 1.6 3.2 0.00 0.03 0.03 76 992.3
20260504033050 10 259 1.6 4.8 0.00 0.03 0.03 76 992.3
20260504032947 10 259 1.6 4.8 0.00 0.03 0.03 75 992.3
20260504032915 10 259 1.6 4.8 0.00 0.03 0.03 75 992.2
20260504032907 10 259 1.6 4.8 0.00 0.03 0.03 75 992.3
20260504032646 10 259 1.6 4.8 0.00 0.03 0.03 75 992.3
20260504032543 10 259 1.6 4.8 0.00 0.03 0.03 75 992.3
20260504032440 10 259 1.6 4.8 0.00 0.03 0.03 74 992.3
20260504032343 10 259 1.6 4.8 0.00 0.03 0.03 74 992.3
20260504032240 10 259 1.6 4.8 0.00 0.03 0.03 74 992.3
20260504032138 10 259 1.6 3.2 0.00 0.03 0.03 74 992.3
20260504032130 10 259 1.6 3.2 0.00 0.03 0.03 73 992.3
20260504032126 10 259 1.6 4.8 0.00 0.03 0.03 73 992.4
20260504032110 10 259 1.6 3.2 0.00 0.03 0.03 73 992.2
20260504031734 10 259 0.0 4.8 0.00 0.03 0.03 73 992.4
20260504031636 10 259 0.0 4.8 0.00 0.03 0.03 73 992.4
20260504031536 10 259 0.0 4.8 0.00 0.03 0.03 73 992.3
20260504031435 10 259 0.0 4.8 0.00 0.03 0.03 73 992.4
20260504031333 10 259 0.0 4.8 0.00 0.03 0.03 73 992.3
20260504031232 10 259 0.0 4.8 0.00 0.03 0.03 73 992.3
20260504031130 10 259 0.0 4.8 0.00 0.03 0.03 73 992.4
20260504031113 10 259 0.0 0.0 0.00 0.03 0.03 72 992.4
20260504031058 10 259 0.0 4.8 0.00 0.03 0.03 73 992.3
20260504030723 10 259 0.0 0.0 0.00 0.03 0.03 72 992.3
20260504030624 10 259 0.0 0.0 0.00 0.03 0.03 72 992.3
20260504030523 11 259 0.0 0.0 0.00 0.03 0.03 72 992.3
20260504030424 11 259 0.0 0.0 0.00 0.03 0.03 71 992.4
20260504030322 11 259 0.0 0.0 0.00 0.03 0.03 71 992.4
20260504030223 11 259 0.0 0.0 0.00 0.03 0.03 71 992.4
20260504030151 11 259 0.0 0.0 0.00 0.03 0.03 70 992.5
20260504030141 11 259 0.0 0.0 0.00 0.03 0.03 70 992.5
20260504025920 11 259 0.0 0.0 0.00 0.03 0.03 70 992.5
20260504025825 11 259 0.0 0.0 0.00 0.03 0.03 70 992.6
20260504025818 11 259 0.0 0.0 0.00 0.03 0.03 70 992.3
20260504025759 11 259 0.0 0.0 0.00 0.03 0.03 71 992.4
20260504025640 11 259 0.0 0.0 0.00 0.03 0.03 71 992.4
20260504025421 11 259 0.0 0.0 0.00 0.03 0.03 70 992.4
20260504025320 11 259 0.0 0.0 0.00 0.03 0.03 70 992.3
20260504025218 11 259 0.0 0.0 0.00 0.03 0.03 70 992.4
20260504025114 11 259 0.0 0.0 0.00 0.03 0.03 70 992.5
20260504025016 11 259 0.0 0.0 0.00 0.03 0.03 70 992.4
20260504024913 11 259 0.0 0.0 0.00 0.03 0.03 70 992.4
20260504024812 11 259 0.0 0.0 0.00 0.03 0.03 70 992.4
20260504024710 11 259 0.0 0.0 0.00 0.03 0.03 70 992.4
20260504024609 11 259 0.0 0.0 0.00 0.03 0.03 70 992.3
20260504024536 11 259 0.0 0.0 0.00 0.03 0.03 70 992.4
20260504024526 11 259 0.0 0.0 0.00 0.03 0.03 70 992.4
20260504024356 11 259 0.0 0.0 0.00 0.03 0.03 70 992.3
20260504024340 11 259 0.0 0.0 0.00 0.03 0.03 70 992.4
20260504024221 11 259 0.0 0.0 0.00 0.03 0.03 70 992.4
20260504024004 11 259 0.0 0.0 0.00 0.03 0.03 70 992.3
20260504023930 11 259 0.0 0.0 0.00 0.03 0.03 70 992.2
20260504023920 11 259 0.0 0.0 0.00 0.03 0.03 70 992.2
20260504023719 11 259 0.0 3.2 0.00 0.03 0.03 68 992.3
20260504023714 11 259 1.6 3.2 0.00 0.03 0.03 68 992.1
20260504023706 11 259 0.0 0.0 0.00 0.03 0.03 69 992.2
20260504023649 11 259 0.0 3.2 0.00 0.03 0.03 69 992.3
20260504023535 11 259 0.0 3.2 0.00 0.03 0.03 67 992.1
20260504023521 11 259 0.0 3.2 0.00 0.03 0.03 68 992.3
20260504023506 11 259 0.0 3.2 0.00 0.03 0.03 68 992.2
20260504023222 11 259 0.0 3.2 0.00 0.03 0.03 68 992.2
20260504022846 11 259 1.6 3.2 0.00 0.03 0.03 68 992.1
20260504022744 11 259 1.6 3.2 0.00 0.03 0.03 68 992.1
20260504022737 11 259 1.6 3.2 0.00 0.03 0.03 67 992.0
20260504022722 11 259 1.6 3.2 0.00 0.03 0.03 68 992.1
20260504022602 11 259 1.6 3.2 0.00 0.03 0.03 67 992.1
20260504022339 11 259 1.6 3.2 0.00 0.03 0.03 67 992.0
20260504022237 11 259 1.6 3.2 0.00 0.03 0.03 68 992.0
20260504022134 11 259 1.6 3.2 0.00 0.03 0.03 68 992.0
20260504022032 11 259 1.6 3.2 0.00 0.03 0.03 67 992.0
20260504021933 11 259 1.6 3.2 0.00 0.03 0.03 67 991.9
20260504021832 11 259 1.6 3.2 0.00 0.03 0.03 67 991.9
20260504021820 11 259 1.6 3.2 0.00 0.03 0.03 67 991.9
20260504021805 11 259 1.6 3.2 0.00 0.03 0.03 67 991.9
20260504021645 11 259 1.6 3.2 0.00 0.03 0.03 67 991.9
20260504021436 11 259 0.0 1.6 0.00 0.03 0.03 66 991.8
20260504021426 11 259 1.6 3.2 0.00 0.03 0.03 67 991.8
20260504021407 11 259 1.6 3.2 0.00 0.03 0.03 67 991.7
20260504021251 11 259 0.0 3.2 0.00 0.03 0.03 66 991.7
20260504021239 11 259 0.0 3.2 0.00 0.03 0.03 67 991.7
20260504021223 11 259 0.0 3.2 0.00 0.03 0.03 66 991.7
20260504020943 11 259 0.0 3.2 0.00 0.03 0.03 66 991.8
20260504020724 11 259 0.0 3.2 0.00 0.03 0.03 66 991.6
20260504020624 11 259 0.0 3.2 0.00 0.03 0.03 66 991.6
20260504020522 12 259 0.0 3.2 0.00 0.03 0.03 65 991.5
20260504020422 12 259 0.0 3.2 0.00 0.03 0.03 65 991.5
20260504020348 12 259 0.0 3.2 0.00 0.03 0.03 66 991.6
20260504020339 12 259 0.0 3.2 0.00 0.03 0.03 66 991.6
20260504020119 12 259 0.0 3.2 0.00 0.03 0.03 65 991.4
20260504020020 12 259 0.0 3.2 0.00 0.03 0.03 65 991.4
20260504015913 12 259 0.0 3.2 0.00 0.03 0.03 65 991.5
20260504015812 12 259 0.0 3.2 0.00 0.03 0.03 64 991.4
20260504015713 12 259 0.0 3.2 0.00 0.03 0.03 64 991.4
20260504015615 12 259 0.0 3.2 0.00 0.03 0.03 64 991.4
20260504015513 12 259 0.0 3.2 0.00 0.03 0.03 63 991.4
20260504015413 12 259 1.6 3.2 0.00 0.03 0.03 63 991.5
20260504015339 12 259 1.6 4.8 0.00 0.03 0.03 63 991.4
20260504015330 12 259 1.6 4.8 0.00 0.03 0.03 63 991.4
20260504015109 12 259 1.6 4.8 0.00 0.03 0.03 63 991.4
20260504015040 13 259 1.6 4.8 0.00 0.03 0.03 63 991.4
20260504015030 12 259 1.6 4.8 0.00 0.03 0.03 63 991.4
20260504014810 13 259 1.6 4.8 0.00 0.03 0.03 63 991.4
20260504014708 13 259 1.6 4.8 0.00 0.03 0.03 63 991.5
20260504014607 13 259 1.6 4.8 0.00 0.03 0.03 63 991.4
20260504014507 13 259 1.6 4.8 0.00 0.03 0.03 63 991.4
20260504014405 13 259 0.0 4.8 0.00 0.03 0.03 62 991.4
20260504014304 13 259 0.0 3.2 0.00 0.03 0.03 63 991.4
20260504014203 13 259 0.0 3.2 0.00 0.03 0.03 63 991.3
20260504014101 13 259 0.0 0.0 0.00 0.03 0.03 63 991.3
20260504014026 13 259 0.0 0.0 0.00 0.03 0.03 62 991.3
20260504014018 13 259 0.0 0.0 0.00 0.03 0.03 63 991.4
20260504013757 13 259 0.0 0.0 0.00 0.03 0.03 62 991.3
20260504013657 13 259 0.0 0.0 0.00 0.03 0.03 61 991.3
20260504013554 13 259 0.0 0.0 0.00 0.03 0.03 61 991.3
20260504013456 13 259 0.0 1.6 0.00 0.03 0.03 60 991.3
20260504013421 13 259 0.0 3.2 0.00 0.03 0.03 60 991.3
20260504013412 13 259 0.0 3.2 0.00 0.03 0.03 60 991.4
20260504013216 13 259 0.0 3.2 0.00 0.03 0.03 60 991.3
20260504013207 13 259 0.0 3.2 0.00 0.03 0.03 60 991.4
20260504012948 13 259 0.0 3.2 0.00 0.03 0.03 60 991.3
20260504012848 13 259 0.0 3.2 0.00 0.03 0.03 60 991.3
20260504012752 13 259 0.0 3.2 0.00 0.03 0.03 60 991.3
20260504012645 13 259 0.0 3.2 0.00 0.03 0.03 60 991.3
20260504012609 13 259 0.0 3.2 0.00 0.03 0.03 61 991.3
20260504012602 13 259 0.0 3.2 0.00 0.03 0.03 60 991.2
20260504012343 14 259 0.0 3.2 0.00 0.03 0.03 60 991.3
20260504012243 14 259 0.0 1.6 0.00 0.03 0.03 60 991.3
20260504012144 14 259 0.0 1.6 0.00 0.03 0.03 60 991.3
20260504012040 14 259 0.0 1.6 0.00 0.03 0.03 58 991.3
20260504011940 14 259 0.0 1.6 0.00 0.03 0.03 57 991.4
20260504011905 14 259 0.0 1.6 0.00 0.03 0.03 57 991.4
20260504011857 14 259 0.0 1.6 0.00 0.03 0.03 57 991.4
20260504011637 14 259 0.0 1.6 0.00 0.03 0.03 58 991.4
20260504011534 14 259 0.0 1.6 0.00 0.03 0.03 58 991.4
20260504011435 14 259 0.0 1.6 0.00 0.03 0.03 56 991.4
20260504011332 14 259 0.0 1.6 0.00 0.03 0.03 56 991.4
20260504011232 14 259 0.0 0.0 0.00 0.03 0.03 55 991.4
20260504011133 14 259 0.0 0.0 0.00 0.03 0.03 55 991.4
20260504011058 15 259 0.0 1.6 0.00 0.03 0.03 54 991.4
20260504011050 14 259 0.0 1.6 0.00 0.03 0.03 54 991.4
20260504010831 15 259 0.0 1.6 0.00 0.03 0.03 54 991.5
20260504010730 15 259 0.0 3.2 0.00 0.03 0.03 54 991.4
20260504010631 15 259 0.0 3.2 0.00 0.03 0.03 54 991.4
20260504010530 15 259 0.0 3.2 0.00 0.03 0.03 54 991.3
20260504010430 15 259 1.6 3.2 0.00 0.03 0.03 54 991.3
20260504010331 15 259 1.6 4.8 0.00 0.03 0.03 53 991.3
20260504010230 15 259 1.6 4.8 0.00 0.03 0.03 53 991.3
20260504010131 15 259 1.6 4.8 0.00 0.03 0.03 54 991.3
20260504010101 15 259 1.6 4.8 0.00 0.03 0.03 53 991.3
20260504010052 15 259 1.6 4.8 0.00 0.03 0.03 53 991.2
20260504005859 15 259 1.6 4.8 0.00 0.03 0.03 54 991.2
20260504005849 15 259 1.6 4.8 0.00 0.03 0.03 54 991.2
20260504005630 15 259 1.6 4.8 0.00 0.03 0.03 54 991.2
20260504005531 15 259 1.6 4.8 0.00 0.03 0.03 54 991.2
20260504005431 15 259 1.6 4.8 0.00 0.03 0.03 53 991.2
20260504005331 15 259 1.6 3.2 0.00 0.03 0.03 53 991.2
20260504005301 15 259 1.6 4.8 0.00 0.03 0.03 51 991.2
20260504005251 15 259 1.6 4.8 0.00 0.03 0.03 53 991.2
20260504005031 15 259 1.6 4.8 0.00 0.03 0.03 51 991.3
20260504004931 16 259 1.6 4.8 0.00 0.03 0.03 51 991.2
20260504004832 16 259 1.6 4.8 0.00 0.03 0.03 51 991.3
20260504004730 16 259 1.6 4.8 0.00 0.03 0.03 51 991.3
20260504004631 16 259 1.6 4.8 0.00 0.03 0.03 51 991.3
20260504004532 16 259 1.6 4.8 0.00 0.03 0.03 50 991.3
20260504004429 16 259 1.6 4.8 0.00 0.03 0.03 50 991.4
20260504004326 16 259 1.6 4.8 0.00 0.03 0.03 50 991.3
20260504004225 16 259 1.6 4.8 0.00 0.03 0.03 50 991.3
20260504004156 16 259 1.6 4.8 0.00 0.03 0.03 49 991.3
20260504004146 16 259 1.6 4.8 0.00 0.03 0.03 50 991.3
20260504003922 16 259 1.6 4.8 0.00 0.03 0.03 49 991.2
20260504003823 16 259 1.6 4.8 0.00 0.03 0.03 49 991.2
20260504003722 16 259 1.6 4.8 0.00 0.03 0.03 48 991.2
20260504003624 17 259 1.6 4.8 0.00 0.03 0.03 48 991.2
20260504003524 17 259 1.6 4.8 0.00 0.03 0.03 48 991.3
20260504003424 17 259 1.6 4.8 0.00 0.03 0.03 49 991.3
20260504003322 17 259 1.6 4.8 0.00 0.03 0.03 48 991.3
20260504003223 17 259 1.6 4.8 0.00 0.03 0.03 48 991.3
20260504003123 17 259 1.6 4.8 0.00 0.03 0.03 49 991.2
20260504003022 17 259 1.6 4.8 0.00 0.03 0.03 49 991.3
20260504002923 17 259 1.6 4.8 0.00 0.03 0.03 48 991.2
20260504002823 17 259 1.6 4.8 0.00 0.03 0.03 49 991.2
20260504002722 17 259 1.6 4.8 0.00 0.03 0.03 49 991.2
20260504002623 17 259 1.6 4.8 0.00 0.03 0.03 47 991.3
20260504002523 17 259 1.6 4.8 0.00 0.03 0.03 46 991.3
20260504002419 17 259 0.0 4.8 0.00 0.03 0.03 46 991.3
20260504002319 17 259 0.0 4.8 0.00 0.03 0.03 45 991.4
20260504002248 17 259 1.6 4.8 0.00 0.03 0.03 45 991.4
20260504002239 17 259 0.0 4.8 0.00 0.03 0.03 45 991.3
20260504002019 17 259 1.6 4.8 0.00 0.03 0.03 45 991.3
20260504001919 18 259 1.6 4.8 0.00 0.03 0.03 45 991.4
20260504001820 18 259 1.6 4.8 0.00 0.03 0.03 45 991.5
20260504001718 18 259 1.6 4.8 0.00 0.03 0.03 46 991.4
20260504001619 18 259 3.2 6.4 0.00 0.03 0.03 47 991.5
20260504001518 18 259 3.2 6.4 0.00 0.03 0.03 47 991.5
20260504001418 18 259 3.2 9.7 0.00 0.03 0.03 47 991.5
20260504001318 18 259 3.2 9.7 0.00 0.03 0.03 48 991.4
20260504001219 18 259 3.2 9.7 0.00 0.03 0.03 43 991.5
20260504001118 18 259 3.2 9.7 0.00 0.03 0.03 43 991.5
20260504001018 18 259 3.2 9.7 0.00 0.03 0.03 42 991.6
20260504000919 18 259 3.2 9.7 0.00 0.03 0.03 42 991.6
20260504000820 18 259 3.2 9.7 0.00 0.03 0.03 41 991.6
20260504000719 18 259 3.2 9.7 0.00 0.03 0.03 41 991.6
20260504000618 18 259 3.2 9.7 0.00 0.03 0.03 40 991.6
20260504000518 18 259 3.2 9.7 0.00 0.03 0.03 39 991.6
20260504000419 18 259 3.2 9.7 0.00 0.03 0.03 39 991.7
20260504000319 18 259 3.2 9.7 0.00 0.03 0.03 39 991.7
20260504000219 18 259 4.8 9.7 0.00 0.03 0.03 39 991.7
20260504000118 18 259 4.8 9.7 0.00 0.03 0.03 39 991.8
20260504000018 18 259 4.8 9.7 0.00 0.03 0.03 39 991.7
20260503235920 18 259 4.8 9.7 0.00 0.03 0.03 39 991.7
20260503235820 18 259 4.8 9.7 0.00 0.03 0.03 38 991.7
20260503235719 18 259 3.2 9.7 0.00 0.03 0.03 38 991.7
20260503235647 18 265 3.2 9.7 0.00 0.03 0.03 38 991.9
20260503235638 18 259 4.8 9.7 0.00 0.03 0.03 38 991.8
20260503235420 18 264 3.2 9.7 0.00 0.03 0.03 40 991.8
20260503235319 18 301 3.2 9.7 0.00 0.03 0.03 38 991.8
20260503235217 18 301 3.2 9.7 0.00 0.03 0.03 38 991.8
20260503235120 18 301 3.2 9.7 0.00 0.03 0.03 38 991.8
20260503235019 18 301 3.2 9.7 0.00 0.03 0.03 38 991.9
20260503234918 18 301 3.2 9.7 0.00 0.03 0.03 38 991.8
20260503234817 18 301 4.8 9.7 0.00 0.03 0.03 39 991.8
20260503234720 18 301 4.8 9.7 0.00 0.03 0.03 38 991.9
20260503234618 18 301 4.8 9.7 0.00 0.03 0.03 37 991.8
20260503234519 18 282 4.8 14.5 0.00 0.03 0.03 37 991.8
20260503234418 18 282 4.8 14.5 0.00 0.03 0.03 38 991.8
20260503234329 18 282 6.4 14.5 0.00 0.03 0.03 37 991.8
20260503234320 18 282 6.4 14.5 0.00 0.03 0.03 37 991.7
20260503234315 18 261 6.4 14.5 0.00 0.03 0.03 36 991.8
20260503234256 18 282 6.4 14.5 0.00 0.03 0.03 37 991.8
20260503233918 18 261 6.4 14.5 0.00 0.03 0.03 36 991.8
20260503233908 18 261 6.4 14.5 0.00 0.03 0.03 35 991.7
20260503233852 18 261 6.4 14.5 0.00 0.03 0.03 36 991.8
20260503233732 18 261 6.4 14.5 0.00 0.03 0.03 36 991.8
20260503233514 18 245 6.4 16.1 0.00 0.03 0.03 36 991.8
20260503233412 18 244 6.4 16.1 0.00 0.03 0.03 37 991.8
20260503233311 19 239 6.4 16.1 0.00 0.03 0.03 36 991.7
20260503233204 19 216 4.8 16.1 0.00 0.03 0.03 38 991.7
20260503233105 19 261 4.8 16.1 0.00 0.03 0.03 37 991.7
20260503233005 19 257 6.4 16.1 0.00 0.03 0.03 38 991.7
20260503232905 19 249 6.4 16.1 0.00 0.03 0.03 38 991.7
20260503232803 19 249 6.4 16.1 0.00 0.03 0.03 37 991.6
20260503232653 19 249 6.4 16.1 0.00 0.03 0.03 38 991.6
20260503232553 19 234 6.4 16.1 0.00 0.03 0.03 37 991.7
20260503232451 19 248 8.0 19.3 0.00 0.03 0.03 36 991.6
20260503232350 19 319 8.0 19.3 0.00 0.03 0.03 35 991.7
20260503232300 19 282 6.4 19.3 0.00 0.03 0.03 35 991.8
20260503232251 19 257 6.4 19.3 0.00 0.03 0.03 35 991.7
20260503232231 19 294 6.4 19.3 0.00 0.03 0.03 35 991.7
20260503232107 19 287 6.4 19.3 0.00 0.03 0.03 35 991.7
20260503231942 19 300 6.4 19.3 0.00 0.03 0.03 35 991.7
20260503231935 19 298 6.4 19.3 0.00 0.03 0.03 35 991.8
20260503231918 19 279 6.4 19.3 0.00 0.03 0.03 35 991.7
20260503231536 19 277 6.4 19.3 0.00 0.03 0.03 34 991.8
20260503231516 19 257 6.4 19.3 0.00 0.03 0.03 34 991.7
20260503231500 19 313 6.4 19.3 0.00 0.03 0.03 34 991.7
20260503231335 19 290 6.4 19.3 0.00 0.03 0.03 34 991.8
20260503231330 20 290 8.0 19.3 0.00 0.03 0.03 35 991.7
20260503231311 19 311 6.4 19.3 0.00 0.03 0.03 34 991.7
20260503230934 20 257 8.0 19.3 0.00 0.03 0.03 33 991.7
20260503230832 20 309 8.0 19.3 0.00 0.03 0.03 33 991.7
20260503230805 20 270 8.0 16.1 0.00 0.03 0.03 33 991.9
20260503230801 20 284 8.0 16.1 0.00 0.03 0.03 33 991.8
20260503230748 20 304 8.0 19.3 0.00 0.03 0.03 34 991.8
20260503230732 20 294 8.0 19.3 0.00 0.03 0.03 34 991.9
20260503230450 20 261 8.0 16.1 0.00 0.03 0.03 33 991.9
20260503230230 20 246 8.0 16.1 0.00 0.03 0.03 34 992.0
20260503230156 20 267 6.4 12.9 0.00 0.03 0.03 34 992.0
20260503230147 20 262 8.0 16.1 0.00 0.03 0.03 34 992.0
20260503225927 20 261 6.4 12.9 0.00 0.03 0.03 33 992.1
20260503225826 20 280 8.0 12.9 0.00 0.03 0.03 32 992.1
20260503225725 20 309 8.0 14.5 0.00 0.03 0.03 32 992.1
20260503225627 20 263 8.0 16.1 0.00 0.03 0.03 33 992.1
20260503225551 20 306 9.7 16.1 0.00 0.03 0.03 34 992.2
20260503225541 20 234 8.0 16.1 0.00 0.03 0.03 34 992.1
20260503225322 20 235 9.7 17.7 0.00 0.03 0.03 35 992.1
20260503225221 20 310 9.7 17.7 0.00 0.03 0.03 35 992.3
20260503225120 20 297 11.3 17.7 0.00 0.03 0.03 34 992.2
20260503225020 20 279 11.3 17.7 0.00 0.03 0.03 34 992.3
20260503224921 20 283 12.9 17.7 0.00 0.03 0.03 34 992.2
20260503224822 20 277 11.3 17.7 0.00 0.03 0.03 34 992.3
20260503224720 20 248 11.3 17.7 0.00 0.03 0.03 34 992.2
20260503224621 20 249 11.3 17.7 0.00 0.03 0.03 35 992.3
20260503224533 20 269 11.3 17.7 0.00 0.03 0.03 35 992.3
20260503224523 20 270 11.3 17.7 0.00 0.03 0.03 35 992.3
20260503224504 20 323 11.3 17.7 0.00 0.03 0.03 34 992.3
20260503224342 20 287 11.3 17.7 0.00 0.03 0.03 34 992.2
20260503224119 20 280 9.7 17.7 0.00 0.03 0.03 34 992.2
20260503224021 20 288 9.7 17.7 0.00 0.03 0.03 36 992.2
20260503224014 20 258 8.0 16.1 0.00 0.03 0.03 37 992.3
20260503223956 20 272 8.0 17.7 0.00 0.03 0.03 35 992.3
20260503223836 20 265 8.0 16.1 0.00 0.03 0.03 37 992.3
20260503223616 20 252 8.0 16.1 0.00 0.03 0.03 37 992.3
20260503223517 20 254 8.0 16.1 0.00 0.03 0.03 37 992.4
20260503223457 20 273 9.7 19.3 0.00 0.03 0.03 37 992.4
20260503223444 20 275 8.0 16.1 0.00 0.03 0.03 35 992.3
20260503223320 20 272 8.0 16.1 0.00 0.03 0.03 34 992.4
20260503223259 20 301 8.0 16.1 0.00 0.03 0.03 35 992.4
20260503223138 20 295 8.0 16.1 0.00 0.03 0.03 35 992.4
20260503222929 20 250 11.3 19.3 0.00 0.03 0.03 36 992.4
20260503222919 20 276 9.7 19.3 0.00 0.03 0.03 36 992.3
20260503222912 20 267 11.3 19.3 0.00 0.03 0.03 35 992.4
20260503222853 20 257 9.7 19.3 0.00 0.03 0.03 35 992.4
20260503222513 20 281 11.3 19.3 0.00 0.03 0.03 35 992.4
20260503222412 20 276 11.3 19.3 0.00 0.03 0.03 36 992.4
20260503222345 20 244 9.7 19.3 0.00 0.03 0.03 34 992.4
20260503222339 20 250 9.7 19.3 0.00 0.03 0.03 34 992.5
20260503222334 20 273 9.7 19.3 0.00 0.03 0.03 35 992.4
20260503222322 20 271 11.3 19.3 0.00 0.03 0.03 37 992.4
20260503222306 20 312 11.3 19.3 0.00 0.03 0.03 36 992.4
20260503221808 20 244 9.7 19.3 0.00 0.03 0.03 35 992.4
20260503221707 20 220 8.0 19.3 0.00 0.03 0.03 35 992.5
20260503221604 20 296 8.0 17.7 0.00 0.03 0.03 35 992.5
20260503221505 20 312 8.0 16.1 0.00 0.03 0.03 34 992.5
20260503221436 20 245 6.4 14.5 0.00 0.03 0.03 37 992.6
20260503221426 20 321 8.0 14.5 0.00 0.03 0.03 36 992.5
20260503221201 20 286 8.0 14.5 0.00 0.03 0.03 35 992.5
20260503221101 20 253 8.0 14.5 0.00 0.03 0.03 35 992.6
20260503221000 20 297 8.0 14.5 0.00 0.03 0.03 35 992.6
20260503220901 20 336 6.4 14.5 0.00 0.03 0.03 36 992.6
20260503220758 20 290 8.0 14.5 0.00 0.03 0.03 37 992.6
20260503220658 20 284 8.0 14.5 0.00 0.03 0.03 35 992.5
20260503220557 20 292 6.4 14.5 0.00 0.03 0.03 35 992.4
20260503220457 20 296 6.4 14.5 0.00 0.05 0.03 35 992.6
20260503220354 20 315 6.4 14.5 0.00 0.05 0.03 36 992.6
20260503220255 20 271 6.4 14.5 0.00 0.05 0.03 37 992.6
20260503220152 20 329 6.4 14.5 0.00 0.05 0.03 37 992.6
20260503220052 20 286 6.4 14.5 0.00 0.05 0.03 38 992.5
20260503215951 20 0 6.4 14.5 0.00 0.05 0.03 35 992.6
20260503215943 20 348 6.4 19.3 0.00 0.05 0.03 38 992.6
20260503215926 20 338 6.4 14.5 0.00 0.05 0.03 35 992.6
20260503215804 20 346 6.4 19.3 0.00 0.05 0.03 39 992.6
20260503215546 20 342 6.4 19.3 0.00 0.05 0.03 38 992.6
20260503215447 20 307 6.4 19.3 0.00 0.05 0.03 35 992.6
20260503215347 20 307 6.4 19.3 0.00 0.05 0.03 35 992.7
20260503215247 20 348 6.4 19.3 0.00 0.05 0.03 36 992.7
20260503215144 20 325 6.4 19.3 0.00 0.05 0.03 36 992.7
20260503215044 20 297 6.4 19.3 0.00 0.05 0.03 39 992.7
20260503214941 20 246 8.0 19.3 0.00 0.05 0.03 36 992.7
20260503214840 20 290 8.0 19.3 0.00 0.05 0.03 36 992.8
20260503214805 20 346 8.0 14.5 0.00 0.05 0.03 35 992.7
20260503214756 20 327 8.0 17.7 0.00 0.05 0.03 36 992.8
20260503214535 20 326 6.4 14.5 0.00 0.05 0.03 36 992.8
20260503214433 20 319 8.0 14.5 0.00 0.05 0.03 36 992.7
20260503214334 20 340 8.0 14.5 0.00 0.05 0.03 36 992.8
20260503214232 20 355 8.0 17.7 0.00 0.05 0.03 37 992.9
20260503214137 20 259 9.7 20.9 0.00 0.05 0.03 37 992.8
20260503214128 20 320 9.7 17.7 0.00 0.05 0.03 38 992.8
20260503214105 20 263 9.7 20.9 0.00 0.05 0.03 37 992.8
20260503213944 20 315 9.7 20.9 0.00 0.05 0.03 38 992.9
20260503213719 20 247 9.7 20.9 0.00 0.05 0.03 36 992.9
20260503213618 20 227 9.7 20.9 0.00 0.05 0.03 36 992.9
20260503213519 20 223 9.7 20.9 0.00 0.05 0.03 35 992.8
20260503213419 20 264 8.0 20.9 0.00 0.05 0.03 35 993.0
20260503213319 20 269 8.0 20.9 0.00 0.05 0.03 35 992.9
20260503213225 20 273 9.7 17.7 0.00 0.05 0.03 36 992.9
20260503213215 20 262 8.0 20.9 0.00 0.05 0.03 38 992.9
20260503213156 20 255 8.0 20.9 0.00 0.05 0.03 38 993.0
20260503213034 20 267 9.7 17.7 0.00 0.05 0.03 39 993.0
20260503212814 20 267 9.7 17.7 0.00 0.05 0.03 36 992.8
20260503212706 20 289 9.7 17.7 0.00 0.05 0.03 36 992.9
20260503212605 20 323 11.3 17.7 0.00 0.05 0.03 35 992.9
20260503212507 20 308 9.7 17.7 0.00 0.05 0.03 35 993.1
20260503212405 20 261 9.7 17.7 0.00 0.05 0.03 35 993.0
20260503212305 20 244 9.7 17.7 0.00 0.05 0.03 36 993.0
20260503212203 20 252 9.7 17.7 0.00 0.05 0.03 36 993.0
20260503212104 20 229 9.7 17.7 0.00 0.05 0.03 35 993.1
20260503212002 20 262 9.7 19.3 0.00 0.05 0.03 36 993.1
20260503211930 20 220 8.0 19.3 0.00 0.05 0.03 35 993.1
20260503211921 20 255 8.0 19.3 0.00 0.05 0.03 38 993.1
20260503211701 20 271 8.0 19.3 0.00 0.05 0.03 35 993.0
20260503211629 20 212 9.7 20.9 0.00 0.05 0.03 34 993.1
20260503211619 20 254 9.7 20.9 0.00 0.05 0.03 37 993.1
20260503211401 20 212 9.7 20.9 0.00 0.05 0.03 35 993.1
20260503211330 20 223 9.7 20.9 0.00 0.05 0.03 37 993.1
20260503211319 20 222 9.7 20.9 0.00 0.05 0.03 37 993.0
20260503211132 20 296 9.7 20.9 0.00 0.05 0.03 38 993.2
20260503211122 20 243 8.0 20.9 0.00 0.05 0.03 35 993.1
20260503211100 20 223 8.0 20.9 0.00 0.05 0.03 35 993.1
20260503210934 20 268 8.0 20.9 0.00 0.05 0.03 35 993.1
20260503210814 20 294 9.7 20.9 0.00 0.05 0.03 35 993.1
20260503210555 20 275 8.0 20.9 0.00 0.05 0.03 39 993.2
20260503210448 20 263 8.0 20.9 0.00 0.05 0.03 39 993.1
20260503210347 20 318 8.0 20.9 0.00 0.05 0.03 38 993.1
20260503210248 20 355 8.0 20.9 0.00 0.05 0.03 36 993.2
20260503210147 20 266 8.0 20.9 0.00 0.05 0.03 37 993.1
20260503210118 20 343 8.0 20.9 0.00 0.05 0.03 35 993.2
20260503210108 20 316 8.0 20.9 0.00 0.05 0.03 35 993.2
20260503205917 20 349 6.4 19.3 0.00 0.05 0.03 39 993.2
20260503205907 20 292 8.0 19.3 0.00 0.05 0.03 38 993.2
20260503205645 20 278 6.4 17.7 0.00 0.05 0.03 43 993.3
20260503205542 20 311 6.4 17.7 0.00 0.05 0.03 41 993.3
20260503205431 20 289 6.4 17.7 0.00 0.05 0.03 39 993.3
20260503205332 20 281 6.4 17.7 0.00 0.05 0.03 37 993.2
20260503205229 20 202 6.4 17.7 0.00 0.05 0.03 34 993.3
20260503205130 20 215 6.4 17.7 0.00 0.05 0.03 35 993.4
20260503205028 20 277 6.4 17.7 0.00 0.05 0.03 38 993.5
20260503204922 20 290 6.4 14.5 0.00 0.05 0.03 37 993.4
20260503204821 20 269 6.4 12.9 0.00 0.05 0.03 37 993.4
20260503204721 20 224 4.8 12.9 0.00 0.05 0.03 39 993.5
20260503204651 20 286 4.8 12.9 0.00 0.05 0.03 35 993.5
20260503204642 20 275 4.8 12.9 0.00 0.05 0.03 36 993.5
20260503204429 20 333 6.4 16.1 0.00 0.05 0.03 38 993.5
20260503204418 20 331 4.8 12.9 0.00 0.05 0.03 38 993.5
20260503204412 20 296 6.4 16.1 0.00 0.05 0.03 42 993.5
20260503204354 20 318 6.4 12.9 0.00 0.05 0.03 38 993.5
20260503204017 20 319 6.4 16.1 0.00 0.05 0.03 37 993.6
20260503203943 20 254 9.7 17.7 0.00 0.05 0.03 36 993.6
20260503203939 20 298 8.0 17.7 0.00 0.05 0.03 38 993.6
20260503203927 20 265 8.0 17.7 0.00 0.05 0.03 37 993.5
20260503203801 20 323 11.3 17.7 0.00 0.05 0.03 36 993.6
20260503203743 20 279 8.0 17.7 0.00 0.05 0.03 38 993.6
20260503203625 20 236 9.7 17.7 0.00 0.05 0.03 37 993.7
20260503203614 20 106 8.0 17.7 0.00 0.05 0.03 38 993.4
20260503203559 20 323 9.7 17.7 0.00 0.05 0.03 38 993.5
20260503203132 20 295 8.0 16.1 0.00 0.05 0.03 38 993.7
20260503203122 20 212 9.7 17.7 0.00 0.05 0.03 38 993.7
20260503202856 20 300 8.0 16.1 0.00 0.05 0.03 38 993.6
20260503202756 20 327 8.0 16.1 0.00 0.05 0.03 37 993.7
20260503202655 20 337 9.7 19.3 0.00 0.05 0.03 37 993.7
20260503202556 20 292 9.7 20.9 0.00 0.05 0.03 37 993.8
20260503202455 20 285 9.7 20.9 0.00 0.05 0.03 37 993.7
20260503202341 20 266 9.7 20.9 0.00 0.05 0.03 36 993.8
20260503202240 20 263 9.7 20.9 0.00 0.05 0.03 39 993.8
20260503202143 20 243 9.7 20.9 0.00 0.05 0.03 37 993.7
20260503202110 19 263 11.3 20.9 0.00 0.05 0.03 35 993.9
20260503202101 19 252 9.7 20.9 0.00 0.05 0.03 39 993.8
20260503201840 19 295 11.3 20.9 0.00 0.05 0.03 36 993.9
20260503201808 20 257 9.7 20.9 0.00 0.05 0.03 36 993.9
20260503201759 20 255 9.7 20.9 0.00 0.05 0.03 36 994.1
20260503201536 20 297 8.0 19.3 0.00 0.05 0.03 37 994.0
20260503201434 20 280 8.0 19.3 0.00 0.05 0.03 38 994.1
20260503201328 20 282 6.4 19.3 0.00 0.05 0.03 36 994.2
20260503201301 20 246 6.4 19.3 0.00 0.05 0.03 35 994.3
20260503201253 20 302 6.4 19.3 0.00 0.05 0.03 36 994.1
20260503201231 20 270 6.4 19.3 0.00 0.05 0.03 38 994.2
20260503201119 20 284 6.4 19.3 0.00 0.05 0.03 37 994.3
20260503201103 20 310 6.4 19.3 0.00 0.05 0.03 39 994.2
20260503200816 19 238 8.0 19.3 0.00 0.05 0.03 36 994.3
20260503200811 19 235 8.0 19.3 0.00 0.05 0.03 39 994.3
20260503200755 19 317 6.4 19.3 0.00 0.05 0.03 37 994.3
20260503200449 19 309 8.0 19.3 0.00 0.05 0.03 36 994.3
20260503200439 19 219 8.0 19.3 0.00 0.05 0.03 38 994.3
20260503200221 19 281 9.7 19.3 0.00 0.05 0.03 34 994.4
20260503200150 19 263 9.7 19.3 0.00 0.05 0.03 36 994.4
20260503200140 19 319 9.7 19.3 0.00 0.05 0.03 36 994.4
20260503195919 19 252 9.7 19.3 0.00 0.05 0.03 37 994.4
20260503195821 19 276 9.7 19.3 0.00 0.05 0.03 40 994.5
20260503195718 19 261 9.7 19.3 0.00 0.05 0.03 38 994.4
20260503195644 19 240 9.7 19.3 0.00 0.05 0.03 37 994.5
20260503195636 19 247 9.7 19.3 0.00 0.05 0.03 36 994.4
20260503195415 19 280 11.3 19.3 0.00 0.05 0.03 37 994.5
20260503195315 19 281 11.3 19.3 0.00 0.05 0.03 35 994.5
20260503195217 19 279 9.7 19.3 0.00 0.05 0.03 37 994.6
20260503195110 19 254 9.7 19.3 0.00 0.05 0.03 37 994.6
20260503195009 19 263 9.7 19.3 0.00 0.05 0.03 38 994.5
20260503194911 19 274 9.7 19.3 0.00 0.05 0.03 37 994.6
20260503194810 19 284 9.7 17.7 0.00 0.05 0.03 37 994.4
20260503194709 19 319 9.7 17.7 0.00 0.05 0.03 40 994.5
20260503194610 19 242 9.7 17.7 0.00 0.05 0.03 39 994.4
20260503194507 19 213 9.7 17.7 0.00 0.05 0.03 37 994.5
20260503194409 19 227 8.0 17.7 0.00 0.05 0.03 40 994.6
20260503194348 19 117 8.0 16.1 0.00 0.05 0.03 35 994.6
20260503194342 19 242 9.7 16.1 0.00 0.05 0.03 35 994.7
20260503194338 19 250 8.0 16.1 0.00 0.05 0.03 37 994.7
20260503194333 19 261 9.7 17.7 0.00 0.05 0.03 39 994.8
20260503194329 19 191 6.4 17.7 0.00 0.05 0.03 37 994.7
20260503194323 19 290 6.4 16.1 0.00 0.05 0.03 38 994.6
20260503194312 19 221 8.0 17.7 0.00 0.05 0.03 40 994.7
20260503194256 19 217 8.0 17.7 0.00 0.05 0.03 37 994.6
20260503194016 19 268 8.0 16.1 0.00 0.05 0.03 36 994.7
20260503194012 19 261 8.0 16.1 0.00 0.05 0.03 38 994.8
20260503194002 19 210 6.4 17.7 0.00 0.05 0.03 40 994.6
20260503193941 19 230 6.4 17.7 0.00 0.05 0.03 39 994.7
20260503193821 19 292 6.4 16.1 0.00 0.05 0.03 39 994.6
20260503193759 19 302 6.4 16.1 0.00 0.05 0.03 37 994.6
20260503193630 19 123 8.0 16.1 0.00 0.05 0.03 41 994.6
20260503192756 18 261 9.7 17.7 0.00 0.05 0.03 41 994.7
20260503192656 18 263 9.7 17.7 0.00 0.05 0.03 38 994.8
20260503192621 18 310 9.7 17.7 0.00 0.05 0.03 41 994.9
20260503192612 18 268 9.7 17.7 0.00 0.05 0.03 41 994.8
20260503192352 18 280 9.7 17.7 0.00 0.05 0.03 40 994.9
20260503192249 18 210 9.7 17.7 0.00 0.05 0.03 39 994.8
20260503192149 18 246 9.7 17.7 0.00 0.05 0.03 39 994.9
20260503192049 18 240 9.7 17.7 0.00 0.05 0.03 39 994.9
20260503192014 18 227 9.7 19.3 0.00 0.05 0.03 38 994.9
20260503192005 18 194 11.3 19.3 0.00 0.05 0.03 38 994.9
20260503191741 18 257 9.7 20.9 0.00 0.05 0.03 42 994.9
20260503191639 18 253 9.7 20.9 0.00 0.05 0.03 39 995.0
20260503191539 18 219 9.7 20.9 0.00 0.05 0.03 37 994.9
20260503191532 18 213 9.7 20.9 0.00 0.05 0.03 40 994.9
20260503191515 18 227 8.0 20.9 0.00 0.05 0.03 39 995.0
20260503191354 18 216 8.0 20.9 0.00 0.05 0.03 38 995.0
20260503191134 18 215 8.0 20.9 0.00 0.05 0.03 36 995.0
20260503191034 18 259 8.0 20.9 0.00 0.05 0.03 36 995.1
20260503190936 18 236 8.0 20.9 0.00 0.05 0.03 36 995.1
20260503190837 18 302 8.0 20.9 0.00 0.05 0.03 37 995.3
20260503190828 18 315 8.0 20.9 0.00 0.05 0.03 34 995.1
20260503190821 18 271 9.7 20.9 0.00 0.05 0.03 40 995.2
20260503190817 18 296 9.7 20.9 0.00 0.05 0.03 35 995.2
20260503190801 18 236 9.7 20.9 0.00 0.05 0.03 40 995.1
20260503190623 18 252 9.7 20.9 0.00 0.05 0.03 38 995.2
20260503190341 18 327 8.0 20.9 0.00 0.05 0.03 38 995.2
20260503190122 18 290 8.0 20.9 0.00 0.05 0.03 36 995.2
20260503190024 18 288 8.0 20.9 0.00 0.05 0.03 36 995.3
20260503185923 18 298 6.4 20.9 0.00 0.05 0.03 36 995.3
20260503185821 18 277 6.4 17.7 0.00 0.05 0.03 39 995.2
20260503185721 18 221 4.8 16.1 0.00 0.05 0.03 39 995.2
20260503185622 18 242 6.4 16.1 0.00 0.05 0.03 38 995.3
20260503185522 18 262 6.4 16.1 0.00 0.05 0.03 37 995.3
20260503185422 18 11 6.4 16.1 0.00 0.05 0.03 38 995.2
20260503185325 18 273 6.4 16.1 0.00 0.05 0.03 38 995.2
20260503185318 18 27 8.0 16.1 0.00 0.05 0.03 36 995.3
20260503185313 18 341 8.0 16.1 0.00 0.05 0.03 35 995.3
20260503185254 18 268 6.4 16.1 0.00 0.05 0.03 36 995.3
20260503184915 18 226 8.0 19.3 0.00 0.05 0.03 35 995.4
20260503184818 18 187 8.0 19.3 0.00 0.05 0.03 35 995.3
20260503184747 18 211 6.4 19.3 0.00 0.05 0.03 36 995.3
20260503184737 18 205 8.0 19.3 0.00 0.05 0.03 36 995.4
20260503184511 18 221 6.4 19.3 0.00 0.05 0.03 40 995.4
20260503184412 18 236 6.4 19.3 0.00 0.05 0.03 34 995.4
20260503184313 18 242 4.8 19.3 0.00 0.05 0.03 37 995.5
20260503184210 18 267 4.8 19.3 0.00 0.05 0.03 35 995.5
20260503184106 18 282 4.8 19.3 0.00 0.05 0.03 37 995.4
20260503184007 18 252 4.8 19.3 0.00 0.05 0.03 38 995.5
20260503183906 17 290 4.8 16.1 0.00 0.05 0.03 36 995.5
20260503183807 17 312 4.8 16.1 0.00 0.05 0.03 40 995.5
20260503183706 17 271 4.8 16.1 0.00 0.05 0.03 38 995.5
20260503183604 17 271 6.4 16.1 0.00 0.05 0.03 37 995.6
20260503183502 17 271 6.4 16.1 0.00 0.05 0.03 37 995.6
20260503183408 18 271 8.0 16.1 0.00 0.05 0.03 37 995.5
20260503183301 18 271 8.0 16.1 0.00 0.05 0.03 37 995.6
20260503183201 18 271 8.0 16.1 0.00 0.05 0.03 37 995.7
20260503183059 18 265 6.4 16.1 0.00 0.05 0.03 40 995.7
20260503183001 18 248 6.4 16.1 0.00 0.05 0.03 37 995.6
20260503182857 18 242 6.4 16.1 0.00 0.05 0.03 37 995.7
20260503182758 17 19 6.4 16.1 0.00 0.05 0.03 40 995.7
20260503182655 18 28 6.4 16.1 0.00 0.05 0.03 38 995.6
20260503182557 17 312 4.8 16.1 0.00 0.05 0.03 45 995.7
20260503182454 17 319 4.8 16.1 0.00 0.05 0.03 45 995.7
20260503182354 17 332 4.8 14.5 0.00 0.05 0.03 45 995.6
20260503182253 17 261 4.8 14.5 0.00 0.05 0.03 44 995.6
20260503182154 17 180 4.8 14.5 0.00 0.05 0.03 41 995.7
20260503182054 17 180 4.8 14.5 0.00 0.05 0.03 42 995.7
20260503181952 17 164 4.8 14.5 0.00 0.05 0.03 39 995.7
20260503181852 17 190 4.8 14.5 0.00 0.05 0.03 38 995.8
20260503181750 17 163 4.8 14.5 0.00 0.05 0.03 39 995.7
20260503181650 17 294 6.4 14.5 0.00 0.05 0.03 38 995.8
20260503181548 17 294 6.4 14.5 0.00 0.05 0.03 38 995.7
20260503181446 17 307 6.4 14.5 0.00 0.05 0.03 39 995.8
20260503181346 17 280 6.4 12.9 0.00 0.05 0.03 39 995.9
20260503181313 17 325 6.4 12.9 0.00 0.05 0.03 41 995.8
20260503181304 17 288 6.4 12.9 0.00 0.05 0.03 42 995.8
20260503181043 17 333 6.4 12.9 0.00 0.05 0.03 46 995.8
20260503180940 17 306 6.4 12.9 0.00 0.05 0.03 44 995.9
20260503180837 17 269 4.8 12.9 0.00 0.05 0.03 41 995.8
20260503180737 17 280 4.8 12.9 0.00 0.05 0.03 43 995.9
20260503180639 17 299 4.8 12.9 0.00 0.05 0.03 41 995.9
20260503180535 17 338 4.8 12.9 0.00 0.05 0.03 40 995.8
20260503180436 17 322 4.8 12.9 0.00 0.05 0.03 47 995.9
20260503180409 17 182 6.4 12.9 0.00 0.05 0.03 41 995.9
20260503180403 17 25 4.8 12.9 0.00 0.05 0.03 42 995.8
20260503180353 17 318 4.8 12.9 0.00 0.05 0.03 47 995.8
20260503180211 17 279 4.8 12.9 0.00 0.05 0.03 45 995.8
20260503180050 17 115 6.4 12.9 0.00 0.05 0.03 43 995.9
20260503175859 17 171 8.0 12.9 0.00 0.05 0.03 42 995.9
20260503175849 17 192 6.4 12.9 0.00 0.05 0.03 41 995.9
20260503175629 17 164 8.0 12.9 0.00 0.05 0.03 47 995.9
20260503175528 17 238 8.0 12.9 0.00 0.05 0.03 43 996.0
20260503175428 17 207 8.0 12.9 0.00 0.05 0.03 42 995.9
20260503175328 17 183 8.0 12.9 0.00 0.05 0.03 40 996.0
20260503175256 16 203 8.0 14.5 0.00 0.05 0.03 46 996.0
20260503175247 17 168 8.0 14.5 0.00 0.05 0.03 42 996.0
20260503175025 16 202 8.0 14.5 0.00 0.05 0.03 44 996.1
20260503174923 16 209 8.0 14.5 0.00 0.05 0.03 46 996.0
20260503174853 16 231 6.4 14.5 0.00 0.05 0.03 45 996.0
20260503174844 16 210 8.0 14.5 0.00 0.05 0.03 47 996.0
20260503174626 16 247 6.4 14.5 0.00 0.05 0.03 44 996.0
20260503174621 16 207 6.4 14.5 0.00 0.05 0.03 43 996.1
20260503174616 16 30 6.4 14.5 0.00 0.05 0.03 40 996.2
20260503174557 16 266 6.4 14.5 0.00 0.05 0.03 43 996.1
20260503174221 16 66 6.4 14.5 0.00 0.05 0.03 41 996.1
20260503174150 16 349 6.4 14.5 0.00 0.05 0.03 44 996.1
20260503174142 16 40 6.4 14.5 0.00 0.05 0.03 44 996.1
20260503173923 16 123 6.4 14.5 0.00 0.05 0.03 41 996.1
20260503173822 16 88 6.4 14.5 0.00 0.05 0.03 39 996.2
20260503173721 16 133 6.4 14.5 0.00 0.05 0.03 41 996.1
20260503173621 16 78 6.4 14.5 0.00 0.05 0.03 42 996.2
20260503173522 16 82 6.4 14.5 0.00 0.05 0.03 40 996.2
20260503173422 16 66 6.4 14.5 0.00 0.05 0.03 43 996.2
20260503173321 16 56 6.4 14.5 0.00 0.05 0.03 40 996.2
20260503173220 16 36 6.4 14.5 0.00 0.05 0.03 40 996.2
20260503173120 16 65 6.4 14.5 0.00 0.05 0.03 39 996.3
20260503173055 16 52 6.4 14.5 0.00 0.05 0.03 39 996.3
20260503173044 16 31 6.4 14.5 0.00 0.05 0.03 39 996.2
20260503172918 16 40 4.8 12.9 0.00 0.05 0.03 43 996.3
20260503172900 16 355 4.8 14.5 0.00 0.05 0.03 39 996.3
20260503172739 16 22 4.8 12.9 0.00 0.05 0.03 43 996.3
20260503172519 16 0 4.8 12.9 0.00 0.05 0.03 43 996.4
20260503172420 16 44 4.8 12.9 0.00 0.05 0.03 42 996.4
20260503172319 16 32 4.8 12.9 0.00 0.05 0.03 43 996.4
20260503172219 16 88 4.8 12.9 0.00 0.05 0.03 43 996.5
20260503172133 15 197 4.8 11.3 0.00 0.05 0.03 44 996.5
20260503172122 16 73 4.8 11.3 0.00 0.05 0.03 42 996.5
20260503172102 16 62 4.8 11.3 0.00 0.05 0.03 46 996.5
20260503171947 15 221 4.8 11.3 0.00 0.05 0.03 42 996.5
20260503171943 16 212 6.4 11.3 0.00 0.05 0.03 44 996.4
20260503171931 16 159 4.8 11.3 0.00 0.05 0.03 43 996.4
20260503171915 16 212 6.4 11.3 0.00 0.05 0.03 46 996.5
20260503171635 16 212 6.4 11.3 0.00 0.05 0.03 42 996.5
20260503171615 16 200 4.8 11.3 0.00 0.05 0.03 42 996.5
20260503171452 15 227 4.8 11.3 0.00 0.05 0.03 44 996.5
20260503171116 15 237 4.8 14.5 0.00 0.05 0.03 44 996.6
20260503171016 15 223 4.8 14.5 0.00 0.05 0.03 45 996.6
20260503170918 15 202 4.8 14.5 0.00 0.05 0.03 42 996.5
20260503170816 15 182 4.8 14.5 0.00 0.05 0.03 41 996.6
20260503170715 15 209 4.8 14.5 0.00 0.05 0.03 42 996.6
20260503170615 15 0 4.8 14.5 0.00 0.05 0.03 40 996.7
20260503170515 15 0 4.8 14.5 0.00 0.05 0.03 42 996.7
20260503170414 15 0 6.4 14.5 0.00 0.05 0.03 43 996.7
20260503170344 15 0 6.4 16.1 0.00 0.05 0.03 42 996.7
20260503170335 15 0 6.4 14.5 0.00 0.05 0.03 42 996.6
20260503170115 15 23 6.4 16.1 0.00 0.05 0.03 44 996.7
20260503160131 15 227 6.4 14.5 0.00 0.05 0.03 49 997.4
20260503150802 12 284 1.6 8.0 0.00 0.05 0.03 76 997.7
20260503150705 11 221 1.6 8.0 0.00 0.05 0.03 78 997.6
20260503150604 11 221 1.6 8.0 0.00 0.05 0.03 77 997.6
20260503150504 11 221 1.6 8.0 0.00 0.05 0.03 79 997.6
20260503150355 11 241 3.2 8.0 0.00 0.05 0.03 81 997.6
20260503150253 11 163 3.2 8.0 0.00 0.05 0.03 84 997.6
20260503150154 11 204 1.6 8.0 0.00 0.05 0.03 87 997.6
20260503140223 7 283 3.2 9.7 0.00 0.05 0.03 93 997.5
20260503140119 7 283 4.8 9.7 0.00 0.05 0.03 93 997.5
20260503131142 6 200 4.8 9.7 0.00 0.05 0.03 93 997.4
20260503131039 6 200 4.8 9.7 0.00 0.05 0.03 93 997.5
20260503130939 6 200 3.2 9.7 0.00 0.05 0.03 93 997.4
20260503130840 6 169 3.2 9.7 0.00 0.05 0.03 93 997.5
20260503130734 5 169 3.2 9.7 0.00 0.05 0.03 93 997.5
20260503130705 5 158 4.8 9.7 0.00 0.05 0.03 93 997.5
20260503130656 5 169 4.8 9.7 0.00 0.05 0.03 93 997.5
20260503130437 5 158 3.2 9.7 0.00 0.05 0.03 93 997.6
20260503130333 5 150 3.2 8.0 0.00 0.05 0.03 93 997.6
20260503130255 5 227 3.2 6.4 0.00 0.05 0.03 93 997.6
20260503130246 5 177 3.2 6.4 0.00 0.05 0.03 93 997.5
20260503120158 4 203 1.6 4.8 0.00 0.05 0.03 93 997.3
20260503110824 3 32 0.0 0.0 0.00 0.05 0.03 92 996.5
20260503110603 3 32 0.0 0.0 0.00 0.05 0.03 92 996.5
20260503110530 3 32 0.0 0.0 0.00 0.05 0.03 92 996.6
20260503110521 3 32 0.0 0.0 0.00 0.05 0.03 92 996.6
20260503110302 3 32 0.0 0.0 0.00 0.05 0.03 92 996.6
20260503110200 3 32 0.0 0.0 0.00 0.05 0.03 92 996.5
20260503100252 3 32 1.6 3.2 0.00 0.05 0.03 92 996.1
20260503100202 3 32 1.6 4.8 0.00 0.05 0.03 92 996.1
20260503090459 3 32 0.0 0.0 0.03 0.05 0.03 91 995.8
20260503090402 3 32 0.0 0.0 0.03 0.05 0.03 91 995.7
20260503090259 3 32 0.0 0.0 0.03 0.05 0.03 91 995.8
20260503090157 3 32 0.0 0.0 0.03 0.05 0.03 91 995.8
20260503081545 3 32 0.0 0.0 0.00 0.03 0.00 91 995.8
20260503081507 3 32 0.0 0.0 0.00 0.03 0.00 91 995.7
20260503081459 3 32 0.0 0.0 0.00 0.03 0.00 91 995.8
20260503081240 3 32 0.0 0.0 0.00 0.03 0.00 91 995.7
20260503081141 3 32 0.0 0.0 0.00 0.03 0.00 91 995.7
20260503081042 3 32 0.0 0.0 0.00 0.03 0.00 91 995.8
20260503081035 3 32 0.0 0.0 0.00 0.03 0.00 91 995.7
20260503081018 3 32 0.0 0.0 0.00 0.03 0.00 91 995.7
20260503080859 3 32 0.0 0.0 0.00 0.03 0.00 91 995.7
20260503080637 3 32 0.0 0.0 0.00 0.03 0.00 91 995.7
20260503080535 3 32 0.0 0.0 0.00 0.03 0.00 91 995.7
20260503080435 3 32 0.0 0.0 0.00 0.03 0.00 91 995.7
20260503080333 3 32 0.0 0.0 0.00 0.03 0.00 91 995.7
20260503080233 3 32 0.0 0.0 0.00 0.03 0.00 91 995.8
20260503080131 3 32 0.0 0.0 0.00 0.03 0.00 91 995.7
20260503072847 3 32 0.0 0.0 0.00 0.03 0.00 90 995.7
20260503072747 3 32 0.0 0.0 0.00 0.03 0.00 90 995.7
20260503072643 3 32 0.0 0.0 0.00 0.03 0.00 90 995.7
20260503072543 3 32 0.0 0.0 0.00 0.03 0.00 90 995.8
20260503072445 3 32 0.0 0.0 0.00 0.03 0.00 90 995.7
20260503072343 3 32 0.0 0.0 0.00 0.03 0.00 90 995.7
20260503072241 3 32 0.0 0.0 0.00 0.03 0.00 90 995.7
20260503072236 3 32 0.0 0.0 0.00 0.03 0.00 90 995.8
20260503072219 3 32 0.0 0.0 0.00 0.03 0.00 90 995.6
20260503072058 3 32 0.0 0.0 0.00 0.03 0.00 90 995.7
20260503071838 3 32 0.0 0.0 0.00 0.03 0.00 90 995.7
20260503071734 3 32 0.0 0.0 0.00 0.03 0.00 90 995.7
20260503071636 3 32 0.0 0.0 0.00 0.03 0.00 90 995.7
20260503071533 3 32 0.0 0.0 0.00 0.03 0.00 90 995.6
20260503071458 3 32 0.0 0.0 0.00 0.03 0.00 90 995.7
20260503071450 3 32 0.0 0.0 0.00 0.03 0.00 90 995.7
20260503071229 3 32 0.0 0.0 0.00 0.03 0.00 90 995.7
20260503071126 3 32 0.0 0.0 0.00 0.03 0.00 90 995.6
20260503071026 3 32 0.0 0.0 0.00 0.03 0.00 90 995.7
20260503070925 3 32 0.0 0.0 0.00 0.03 0.00 90 995.6
20260503070915 3 32 0.0 0.0 0.00 0.03 0.00 90 995.5
20260503070910 3 32 0.0 0.0 0.00 0.03 0.00 90 995.5
20260503070855 3 32 0.0 0.0 0.00 0.03 0.00 90 995.5
20260503070520 3 32 0.0 0.0 0.00 0.03 0.00 89 995.5
20260503070419 3 32 0.0 0.0 0.00 0.03 0.00 90 995.5
20260503070319 3 32 0.0 0.0 0.00 0.03 0.00 89 995.5
20260503070217 3 32 0.0 0.0 0.00 0.03 0.00 90 995.5
20260503070119 3 32 0.0 0.0 0.00 0.03 0.00 90 995.5
20260503060316 4 32 0.0 0.0 0.00 0.03 0.00 89 995.5
20260503060217 4 32 0.0 0.0 0.00 0.03 0.00 89 995.5
20260503060116 4 32 0.0 0.0 0.00 0.03 0.00 89 995.5
20260503055105 4 32 0.0 0.0 0.00 0.03 0.00 89 995.4
20260503055005 4 32 0.0 0.0 0.00 0.03 0.00 89 995.4
20260503054930 5 32 0.0 0.0 0.00 0.03 0.00 89 995.4
20260503054921 5 32 0.0 0.0 0.00 0.03 0.00 89 995.4
20260503054659 5 32 0.0 0.0 0.00 0.03 0.00 89 995.4
20260503054625 5 32 0.0 0.0 0.00 0.03 0.00 89 995.3
20260503054616 5 32 0.0 0.0 0.00 0.03 0.00 89 995.3
20260503054359 5 32 0.0 0.0 0.00 0.03 0.00 89 995.4
20260503054255 5 32 0.0 0.0 0.00 0.03 0.00 89 995.3
20260503054247 5 32 0.0 0.0 0.00 0.03 0.00 89 995.5
20260503054231 5 32 0.0 0.0 0.00 0.03 0.00 89 995.4
20260503054111 5 32 0.0 0.0 0.00 0.03 0.00 89 995.4
20260503053851 5 32 0.0 0.0 0.00 0.03 0.00 89 995.5
20260503053752 5 32 0.0 0.0 0.00 0.03 0.00 89 995.5
20260503053720 5 32 0.0 0.0 0.00 0.03 0.00 89 995.4
20260503053711 5 32 0.0 0.0 0.00 0.03 0.00 89 995.5
20260503053451 5 32 0.0 0.0 0.00 0.03 0.00 89 995.4
20260503053349 5 32 0.0 0.0 0.00 0.03 0.00 89 995.4
20260503053249 5 32 0.0 0.0 0.00 0.03 0.00 89 995.4
20260503053146 5 32 0.0 0.0 0.00 0.03 0.00 89 995.5
20260503053046 5 32 0.0 0.0 0.00 0.03 0.00 89 995.4
20260503052944 5 32 0.0 0.0 0.00 0.03 0.00 89 995.4
20260503052845 5 32 0.0 0.0 0.00 0.03 0.00 89 995.3
20260503052810 5 32 0.0 0.0 0.00 0.03 0.00 90 995.3
20260503052801 5 32 0.0 0.0 0.00 0.03 0.00 90 995.3
20260503052537 5 32 0.0 0.0 0.00 0.03 0.00 90 995.3
20260503052438 5 32 0.0 0.0 0.00 0.03 0.00 90 995.3
20260503052405 5 32 0.0 0.0 0.00 0.03 0.00 89 995.3
20260503052355 5 32 0.0 0.0 0.00 0.03 0.00 89 995.3
20260503052200 5 32 0.0 0.0 0.00 0.03 0.00 89 995.3
20260503052153 5 32 0.0 0.0 0.00 0.03 0.00 89 995.3
20260503051932 5 32 0.0 0.0 0.00 0.03 0.00 89 995.2
20260503051832 5 32 0.0 0.0 0.00 0.03 0.00 89 995.3
20260503051729 5 32 0.0 0.0 0.00 0.03 0.00 89 995.2
20260503051630 5 32 0.0 0.0 0.00 0.03 0.00 89 995.3
20260503051529 5 32 0.0 0.0 0.00 0.03 0.00 89 995.2
20260503051425 5 32 0.0 0.0 0.00 0.03 0.00 89 995.3
20260503051326 5 32 0.0 0.0 0.00 0.03 0.00 89 995.3
20260503051252 5 32 0.0 0.0 0.00 0.03 0.00 89 995.3
20260503051245 5 32 0.0 0.0 0.00 0.03 0.00 89 995.4
20260503051023 5 32 0.0 0.0 0.00 0.03 0.00 89 995.3
20260503050919 5 32 0.0 0.0 0.00 0.03 0.00 89 995.3
20260503050850 5 32 0.0 0.0 0.00 0.03 0.00 88 995.3
20260503050839 5 32 0.0 0.0 0.00 0.03 0.00 88 995.3
20260503050617 5 32 0.0 0.0 0.00 0.03 0.00 88 995.3
20260503050544 5 32 0.0 0.0 0.00 0.03 0.00 88 995.2
20260503050534 5 32 0.0 0.0 0.00 0.03 0.00 88 995.3
20260503050314 5 32 0.0 0.0 0.00 0.03 0.00 88 995.3
20260503050212 5 32 0.0 0.0 0.00 0.03 0.00 88 995.2
20260503050112 5 32 0.0 0.0 0.00 0.03 0.00 88 995.2
20260503050011 5 32 0.0 0.0 0.00 0.03 0.00 88 995.2
20260503050005 5 32 0.0 0.0 0.00 0.03 0.03 88 995.2
20260503050000 5 32 0.0 0.0 0.00 0.03 0.03 88 995.2
20260503045944 5 32 0.0 0.0 0.00 0.03 0.03 88 995.2
20260503045607 5 32 0.0 0.0 0.00 0.03 0.03 88 995.2
20260503045506 5 32 0.0 0.0 0.00 0.03 0.03 88 995.2
20260503045431 5 32 0.0 0.0 0.00 0.03 0.03 88 995.2
20260503045422 5 32 0.0 0.0 0.00 0.03 0.03 88 995.3
20260503045231 5 32 0.0 0.0 0.00 0.03 0.03 88 995.2
20260503045222 5 32 0.0 0.0 0.00 0.03 0.03 88 995.2
20260503044958 5 32 0.0 0.0 0.00 0.03 0.03 88 995.2
20260503044857 5 32 0.0 0.0 0.00 0.03 0.03 88 995.2
20260503044849 5 32 0.0 0.0 0.00 0.03 0.03 88 995.2
20260503044832 5 32 0.0 0.0 0.00 0.03 0.03 88 995.2
20260503044714 5 32 0.0 0.0 0.00 0.03 0.03 88 995.1
20260503044454 5 32 0.0 0.0 0.00 0.03 0.03 88 995.2
20260503044421 5 32 0.0 0.0 0.00 0.03 0.03 88 995.2
20260503044412 5 32 0.0 0.0 0.00 0.03 0.03 88 995.2
20260503044351 5 32 0.0 0.0 0.00 0.03 0.03 88 995.2
20260503044227 5 32 0.0 0.0 0.00 0.03 0.03 88 995.2
20260503044106 5 32 0.0 0.0 0.00 0.03 0.03 88 995.2
20260503043935 5 32 0.0 0.0 0.00 0.03 0.03 88 995.2
20260503043918 5 32 0.0 0.0 0.00 0.03 0.03 88 995.1
20260503043758 5 32 0.0 0.0 0.00 0.03 0.03 88 995.2
20260503043539 5 32 0.0 0.0 0.00 0.03 0.03 88 995.3
20260503043503 5 32 0.0 0.0 0.00 0.03 0.03 88 995.2
20260503043454 5 32 0.0 0.0 0.00 0.03 0.03 88 995.2
20260503043231 5 32 0.0 0.0 0.00 0.03 0.03 88 995.2
20260503043156 5 32 0.0 0.0 0.00 0.03 0.03 88 995.1
20260503043148 5 32 0.0 0.0 0.00 0.03 0.03 88 995.1
20260503042928 5 32 0.0 0.0 0.00 0.03 0.03 88 995.1
20260503042830 6 32 0.0 0.0 0.00 0.03 0.03 88 995.1
20260503042816 6 32 0.0 0.0 0.00 0.03 0.03 88 995.1
20260503042811 6 32 0.0 0.0 0.00 0.03 0.03 88 995.0
20260503042755 5 32 0.0 0.0 0.00 0.03 0.03 88 995.1
20260503042451 6 32 0.0 0.0 0.00 0.03 0.03 88 995.1
20260503042442 6 32 0.0 0.0 0.00 0.03 0.03 88 995.0
20260503042210 6 32 0.0 0.0 0.00 0.03 0.03 88 995.0